Location: Domachevo
(51.7500°N, 23.6000°E)
Time: 18:27:58
(UTC+03:00)

GENESIS II - Visible Passes

Search period start: 26 September 2018 00:00
Search period end: 06 October 2018 00:00
Orbit: 496 x 535 km, 64.5° (Epoch: 24 September)

Date Brightness Start Highest point End Pass type
(mag) Time Alt. Az. Time Alt. Az. Time Alt. Az.
26 Sep 5.9 20:35:20 10° W 20:38:54 32° NW 20:42:33 10° NNE visible
26 Sep 7.0 22:15:25 10° NW 22:17:43 15° N 22:19:38 11° NNE visible
26 Sep 7.6 23:54:30 10° NNW 23:54:36 10° NNW 23:54:36 10° NNW visible
27 Sep 6.0 20:19:37 10° W 20:23:11 32° NW 20:26:49 10° NNE visible
27 Sep 7.0 21:59:43 10° NW 22:02:01 15° N 22:04:11 10° NNE visible
27 Sep 7.5 23:38:47 10° NNW 23:39:10 11° NNW 23:39:10 11° NNW visible
28 Sep 6.0 20:03:56 10° W 20:07:30 32° NNW 20:11:06 10° NNE visible
28 Sep 7.0 21:44:03 10° NW 21:46:19 15° N 21:48:35 10° NNE visible
28 Sep 7.4 23:23:04 10° NNW 23:23:43 12° NNW 23:23:43 12° NNW visible
29 Sep 6.0 19:48:14 10° W 19:51:46 31° NNW 19:55:23 10° NNE visible
29 Sep 6.9 21:28:21 10° NW 21:30:36 14° N 21:32:53 10° NNE visible
29 Sep 7.3 23:07:21 10° NNW 23:08:15 13° NNW 23:08:15 13° NNW visible
30 Sep 6.0 19:32:31 10° W 19:36:03 31° NNW 19:39:39 10° NNE visible
30 Sep 6.9 21:12:39 10° NW 21:14:54 14° N 21:17:09 10° NNE visible
30 Sep 7.2 22:51:37 10° NNW 22:52:48 14° N 22:52:48 14° N visible
01 Oct 6.9 20:56:57 10° NW 20:59:12 14° N 21:01:27 10° NNE visible
01 Oct 7.0 22:35:55 10° NNW 22:37:20 14° N 22:37:20 14° N visible
02 Oct 6.8 20:41:16 10° NW 20:43:29 14° N 20:45:44 10° NNE visible
02 Oct 6.9 22:20:11 10° NNW 22:21:53 15° N 22:21:53 15° N visible
03 Oct 6.8 20:25:34 10° NW 20:27:47 14° N 20:30:00 10° NNE visible
03 Oct 6.8 22:04:27 10° NNW 22:06:25 15° N 22:06:25 15° N visible
04 Oct 6.8 20:09:52 10° NW 20:12:04 14° N 20:14:17 10° NNE visible
04 Oct 6.6 21:48:43 10° NNW 21:50:59 16° N 21:50:59 16° N visible
05 Oct 6.7 19:54:09 10° NW 19:56:21 14° N 19:58:34 10° NNE visible
05 Oct 6.5 21:33:00 10° NNW 21:35:32 16° NNE 21:35:32 16° NNE visible
05 Oct 7.6 23:10:23 10° NW 23:10:30 11° NNW 23:10:30 11° NNW visible
